STARLINK-5192, 54074

Orbit data source: Space-Track

STARLINK-5192, 54074 is a payload satellite owned by SpaceX/Seattle (US) in LEO that was launched on Thu, 20 Oct 2022 UTC via an FALCON 9 launch vehicle from the Air Force Eastern Test Range (AFETR). Payload-class satellites include a variety of spacecraft equipped with specific instruments for various scientific and technological missions. These include communications satellites like Starlink; space stations such as the ISS; scientific satellites like the Hubble; Earth observation satellites from companies like Planet Labs, Umbra, and HawkEye 360; GPS; miniature CubeSats for education and research; and military/defense satellites.

Loading next visibility...
Identifier
54074, 2022-136Z
Orbit
LEO
Country
Flag of USUS
Related business
Manufacturer
SpaceX/Seattle
Mission
Operational Commercial Communications
Bus & Motor
STARLINK, Unknown motor
Mass
305 kg wet, ~290 kg dry
Launch date (UTC)
2022-10-20 (3 years ago)
Launch vehicle
FALCON 9
Launch site
Air Force Eastern Test Range (AFETR)
Object type
Payload
Rocket body
Debris
Shape & HBR
Box + 1 Pan, 10.1 m
Radar Cross Section
13.562 m², Large (>1 m²)

Expand to show TLE details & history
Last TLE update: 20 hours ago

TLE from 20 hours ago
0 STARLINK-5192
1 54074U 22136Z   25303.02620478 -.00001081  00000-0 -49862-4 0  9991
2 54074  53.2175 210.3074 0001424 102.9240 257.1911 15.08833293167126
Epoch: 2025-10-30T00:37Z
TLE epoch observation values (Epoch: 2025-10-30T00:37:44.092Z)
Latitude
-0.00002°
Longitude
162.28276°
Altitude
540.88 km
Speed
7.593 km/s
True Right ascension
14h 01m 13s
True Declination
0° 00' 00"
Sunlit
Object was in daylight at epoch
Visualization orbit readout
Latitude
Unknown
Longitude
Unknown
Altitude
Unknown
Speed
Unknown
Apparent Right ascension
Unknown
Apparent Declination
Unknown
Sunlit
N/A
Visualization observer readout
Local Sidereal Time
15:55:57
Azimuth
Unknown
Elevation
Unknown
Doppler factor
Unknown
Orbital elements
Apogee altitude
540.994 km
Perigee altitude
539.024 km
Semi-major axis
6,918.146 km
Eccentricity
0.00014
Inclination
53.2175°
RAAN
210.3074°
Arg. of periapsis
102.924°
True anomaly
257.17519°
Mean anomaly
257.1911°
Eccentric anomaly
257.18314°
Mean motion
3.77189 °/min
Orbital period
95.44 mins
BSTAR
-0.000049862
Loading maneuver chart data...
Computing Atmospheric mass density...
Loading historical data...
Loading historical data...
Loading historical data...
Loading historical data...
Loading historical data...
Loading historical data...
Loading historical data...

Documentation

Showing up to 5 results
|